Location: Ajisawe
(8.4333°N, 4.3833°E)
Time: 13:33:11
(UTC+00:00)

SR - Pass Details

Date: 26 April 2021
Orbit: 573 x 882 km, 66.7° (Epoch: 15 May)

Event Time Altitude Azimuth Distance (km) Brightness Sun altitude
Exits shadow 04:49:48 - 220° (SW) 2,444 ? -10.1°
Reaches altitude 10° 04:50:22 10° 223° (SW) 2,240 ? -10.0°
Maximum altitude 04:55:12 41° 292° (WNW) 1,128 ? -8.8°
Drops below altitude 10° 05:00:25 10° 1° (N) 2,421 ? -7.6°
Sets 05:03:06 0° 9° (N) 3,392 ? -6.9°
